Terminal Aerodrome Forecast
Issued by NWS

Home | Current Version | Previous Version | Text Only | Print | Product List | Glossary Off
Versions: 1 2 3 4 5 6 7 8 9 10 11 12 13 14 15 16 17 18 19 20 21 22 23 24 25 26 27 28 29 30 31 32

000
FTUS43 KLOT 260900 AAA
TAFORD
TAF AMD
KORD 260900Z 2609/2712 23007KT P6SM SCT035
     FM261000 25006KT P6SM VCTS SCT015 BKN035CB
      TEMPO 2611/2613 3SM TSRA BR OVC015CB
     FM261400 36008KT P6SM VCSH SCT040 BKN250
     FM261600 02007KT P6SM SCT040 BKN250
     FM261900 03010KT P6SM SCT040 BKN250
     FM262300 02006KT P6SM FEW150 BKN250=

USA.gov is the U.S. government's official web portal to all federal, state and local government web resources and services.